When you browse on this site, cookies collect data to enhance your experience and personalize the content and advertising you see.
Visit our Privacy Policy to learn more. By continuing to use the site, you agree to this use of cookies and data.
  • In Österreich
  • Länderverzeichnis
  • Für 7 Tage
  • Wassertemperatur
  • Wetterkarte
  • News
  • Widgets
  • user-avatar
    Anmelden

    Stündliche Wetter Escaldes-Engordany

    Heute, 28 Januar, Dienstag

    Zeit Temperatur Niederschläge Wind Luftdruck Luftfeuchtigkeit
    00:00 +2°C° 0 mm 1 m/S 635 mmHg 93%
    01:00 +1°C° 0 mm 1 m/S 635 mmHg 92%
    02:00 +1°C° 0 mm 1 m/S 635 mmHg 91%
    03:00 +1°C° 0 mm 1 m/S 634 mmHg 89%
    04:00 +1°C° 0 mm 1 m/S 634 mmHg 90%
    05:00 +1°C° 0 mm 1 m/S 635 mmHg 90%
    06:00 +1°C° 0 mm 1 m/S 635 mmHg 91%
    07:00 +2°C° 0 mm 1 m/S 635 mmHg 90%
    08:00 +3°C° 0 mm 1 m/S 636 mmHg 89%
    09:00 +4°C° 0 mm 1 m/S 637 mmHg 88%
    10:00 +5°C° 0 mm 1 m/S 637 mmHg 88%
    11:00 +5°C° 0 mm 1 m/S 637 mmHg 88%
    12:00 +6°C° 0 mm 1 m/S 638 mmHg 88%
    13:00 +6°C° 0 mm 1 m/S 637 mmHg 88%
    14:00 +6°C° 0 mm 1 m/S 637 mmHg 89%
    15:00 +6°C° 0 mm 1 m/S 637 mmHg 89%
    16:00 +4°C° 0 mm 1 m/S 636 mmHg 90%
    17:00 +2°C° 0 mm 1 m/S 636 mmHg 91%
    18:00 +1°C° 0 mm 1 m/S 636 mmHg 92%
    19:00 0°C° 0 mm 1 m/S 636 mmHg 88%
    20:00 0°C° 0 mm 1 m/S 636 mmHg 84%
    21:00 -1°C° 0 mm 1 m/S 636 mmHg 79%
    22:00 -1°C° 0 mm 1 m/S 636 mmHg 73%
    23:00 -1°C° 0 mm 1 m/S 636 mmHg 67%

    Morgen, 29 Januar, Mittwoch

    Zeit Temperatur Niederschläge Wind Luftdruck Luftfeuchtigkeit
    00:00 -1°C° 0 mm 1 m/S 637 mmHg 61%
    01:00 -3°C° 0 mm 2 m/S 636 mmHg 60%
    02:00 -3°C° 0 mm 2 m/S 636 mmHg 58%
    03:00 -3°C° 0 mm 2 m/S 636 mmHg 56%
    04:00 -3°C° 0 mm 2 m/S 636 mmHg 58%
    05:00 -3°C° 0 mm 2 m/S 637 mmHg 59%
    06:00 -2°C° 0 mm 2 m/S 637 mmHg 61%
    07:00 -1°C° 0 mm 2 m/S 638 mmHg 63%
    08:00 +2°C° 0 mm 1 m/S 638 mmHg 65%
    09:00 +4°C° 0 mm 1 m/S 639 mmHg 68%
    10:00 +5°C° 0 mm 1 m/S 639 mmHg 68%
    11:00 +6°C° 0 mm 1 m/S 640 mmHg 68%
    12:00 +7°C° 0 mm 1 m/S 640 mmHg 69%
    13:00 +7°C° 0 mm 1 m/S 640 mmHg 72%
    14:00 +6°C° 0 mm 0 m/S 639 mmHg 75%
    15:00 +6°C° 0 mm 0 m/S 639 mmHg 77%
    16:00 +5°C° 0 mm 1 m/S 639 mmHg 77%
    17:00 +4°C° 0 mm 1 m/S 638 mmHg 77%
    18:00 +2°C° 0 mm 1 m/S 638 mmHg 77%
    19:00 +2°C° 0 mm 1 m/S 638 mmHg 77%
    20:00 +2°C° 0 mm 1 m/S 638 mmHg 77%
    21:00 +1°C° 0 mm 1 m/S 638 mmHg 78%
    22:00 +2°C° 0 mm 1 m/S 638 mmHg 80%
    23:00 +2°C° 0 mm 1 m/S 638 mmHg 82%

    übermorgen, 30 Januar, Donnerstag

    Zeit Temperatur Niederschläge Wind Luftdruck Luftfeuchtigkeit
    00:00 +2°C° 0 mm 1 m/S 638 mmHg 85%
    01:00 +2°C° 0 mm 1 m/S 638 mmHg 85%
    02:00 +3°C° 0 mm 1 m/S 638 mmHg 85%
    03:00 +2°C° 0 mm 2 m/S 637 mmHg 85%
    04:00 +4°C° 0.1 mm 1 m/S 638 mmHg 86%
    05:00 +4°C° 0.1 mm 1 m/S 638 mmHg 88%
    06:00 +4°C° 0.1 mm 1 m/S 638 mmHg 90%
    07:00 +5°C° 0.1 mm 1 m/S 638 mmHg 90%
    08:00 +6°C° 0.1 mm 1 m/S 638 mmHg 90%
    09:00 +7°C° 0.1 mm 1 m/S 639 mmHg 91%
    10:00 +6°C° 0.3 mm 0 m/S 639 mmHg 91%
    11:00 +6°C° 0.3 mm 0 m/S 639 mmHg 91%
    12:00 +7°C° 0.3 mm 0 m/S 639 mmHg 91%
    13:00 +6°C° 0.5 mm 0 m/S 639 mmHg 92%
    14:00 +6°C° 0.5 mm 0 m/S 638 mmHg 93%
    15:00 +6°C° 0.5 mm 1 m/S 638 mmHg 94%
    16:00 +6°C° 0 mm 1 m/S 638 mmHg 94%
    17:00 +6°C° 0 mm 1 m/S 638 mmHg 94%
    18:00 +5°C° 0 mm 1 m/S 638 mmHg 93%
    19:00 +5°C° 0.2 mm 1 m/S 638 mmHg 93%
    20:00 +5°C° 0.2 mm 1 m/S 639 mmHg 94%
    21:00 +5°C° 0.2 mm 1 m/S 639 mmHg 94%
    22:00 +5°C° 0 mm 1 m/S 639 mmHg 94%
    23:00 +5°C° 0 mm 1 m/S 639 mmHg 94%

    31 Januar, Freitag

    Zeit Temperatur Niederschläge Wind Luftdruck Luftfeuchtigkeit
    00:00 +5°C° 0 mm 1 m/S 639 mmHg 94%
    01:00 +5°C° 0 mm 1 m/S 639 mmHg 93%
    02:00 +5°C° 0 mm 1 m/S 639 mmHg 92%
    03:00 +4°C° 0 mm 1 m/S 639 mmHg 92%
    04:00 +4°C° 0 mm 1 m/S 639 mmHg 92%
    05:00 +4°C° 0 mm 1 m/S 639 mmHg 91%
    06:00 +4°C° 0 mm 1 m/S 638 mmHg 91%
    07:00 +5°C° 0 mm 1 m/S 639 mmHg 91%
    08:00 +6°C° 0 mm 1 m/S 640 mmHg 91%
    09:00 +6°C° 0 mm 1 m/S 640 mmHg 91%
    10:00 +8°C° 0 mm 1 m/S 640 mmHg 88%
    11:00 +9°C° 0 mm 1 m/S 641 mmHg 85%
    12:00 +9°C° 0 mm 0 m/S 641 mmHg 83%
    13:00 +8°C° 0 mm 0 m/S 641 mmHg 84%
    14:00 +8°C° 0 mm 0 m/S 640 mmHg 85%
    15:00 +9°C° 0 mm 1 m/S 640 mmHg 86%
    16:00 +8°C° 0 mm 1 m/S 639 mmHg 88%
    17:00 +6°C° 0 mm 1 m/S 639 mmHg 89%
    18:00 +5°C° 0 mm 1 m/S 639 mmHg 91%
    19:00 +5°C° 0 mm 1 m/S 639 mmHg 89%
    20:00 +5°C° 0 mm 1 m/S 639 mmHg 88%
    21:00 +5°C° 0 mm 1 m/S 639 mmHg 86%
    22:00 +5°C° 0 mm 1 m/S 639 mmHg 85%
    23:00 +5°C° 0 mm 1 m/S 639 mmHg 85%

    1 Februar, Samstag

    Zeit Temperatur Niederschläge Wind Luftdruck Luftfeuchtigkeit
    00:00 +5°C° 0 mm 1 m/S 639 mmHg 84%
    01:00 +5°C° 0 mm 1 m/S 638 mmHg 83%
    02:00 +5°C° 0 mm 1 m/S 638 mmHg 82%
    03:00 +5°C° 0 mm 1 m/S 638 mmHg 81%
    04:00 +6°C° 0 mm 1 m/S 638 mmHg 80%
    05:00 +6°C° 0 mm 1 m/S 638 mmHg 79%
    06:00 +6°C° 0 mm 1 m/S 638 mmHg 79%
    07:00 +6°C° 0.4 mm 1 m/S 639 mmHg 81%
    08:00 +7°C° 0.4 mm 1 m/S 639 mmHg 84%
    09:00 +7°C° 0.4 mm 1 m/S 640 mmHg 87%
    10:00 +8°C° 0.7 mm 1 m/S 640 mmHg 87%
    11:00 +8°C° 0.7 mm 1 m/S 641 mmHg 86%
    12:00 +9°C° 0.7 mm 1 m/S 641 mmHg 86%
    13:00 +9°C° 0.5 mm 1 m/S 641 mmHg 87%
    14:00 +9°C° 0.5 mm 1 m/S 641 mmHg 89%
    15:00 +7°C° 0.5 mm 2 m/S 641 mmHg 90%
    16:00 +6°C° 0 mm 2 m/S 641 mmHg 91%
    17:00 +5°C° 0 mm 2 m/S 641 mmHg 93%
    18:00 +4°C° 0 mm 2 m/S 641 mmHg 94%
    19:00 +4°C° 0 mm 2 m/S 641 mmHg 89%
    20:00 +3°C° 0 mm 2 m/S 641 mmHg 84%
    21:00 +3°C° 0 mm 2 m/S 642 mmHg 79%
    22:00 +3°C° 0 mm 2 m/S 642 mmHg 74%
    23:00 +3°C° 0 mm 2 m/S 642 mmHg 69%

    2 Februar, Sonntag

    Zeit Temperatur Niederschläge Wind Luftdruck Luftfeuchtigkeit
    00:00 +4°C° 0 mm 2 m/S 642 mmHg 64%
    01:00 +4°C° 0 mm 2 m/S 642 mmHg 61%
    02:00 +4°C° 0 mm 2 m/S 642 mmHg 59%
    03:00 +4°C° 0 mm 2 m/S 642 mmHg 57%
    04:00 +4°C° 0 mm 2 m/S 642 mmHg 55%
    05:00 +4°C° 0 mm 2 m/S 642 mmHg 53%
    06:00 +6°C° 0 mm 1 m/S 642 mmHg 51%
    07:00 +7°C° 0 mm 1 m/S 642 mmHg 53%
    08:00 +8°C° 0 mm 1 m/S 643 mmHg 54%
    09:00 +9°C° 0 mm 1 m/S 644 mmHg 55%
    10:00 +10°C° 0 mm 1 m/S 644 mmHg 55%
    11:00 +12°C° 0 mm 1 m/S 645 mmHg 56%
    12:00 +12°C° 0 mm 0 m/S 645 mmHg 56%
    13:00 +13°C° 0 mm 1 m/S 645 mmHg 59%
    14:00 +13°C° 0 mm 1 m/S 644 mmHg 63%
    15:00 +12°C° 0 mm 1 m/S 644 mmHg 66%
    16:00 +11°C° 0 mm 1 m/S 644 mmHg 65%
    17:00 +9°C° 0 mm 1 m/S 643 mmHg 64%
    18:00 +8°C° 0 mm 1 m/S 643 mmHg 63%
    19:00 +7°C° 0 mm 1 m/S 643 mmHg 64%
    20:00 +6°C° 0 mm 2 m/S 643 mmHg 66%
    21:00 +6°C° 0 mm 2 m/S 643 mmHg 67%
    22:00 +6°C° 0 mm 2 m/S 643 mmHg 66%
    23:00 +6°C° 0 mm 2 m/S 643 mmHg 66%
    Mehr zeigen